Total_Precipitation_Accumulation
0.00 0.01 0.02 0.02 0.02 0.03 0.05 0.08 0.13 0.17 0.15 0.18 0.33 0.52 0.56 0.74 1.04 1.34 1.66 1.91 2.22 2.51 2.93 3.37 3.46 3.67 3.96 4.54 4.91 4.99 5.08 4.93 4.64 4.22 3.79 3.60 3.50 3.45 3.24 3.03 2.85 2.73 2.67 2.76
0.01 0.03 0.01 0.01 0.02 0.03 0.06 0.10 0.14 0.17 0.15 0.17 0.31 0.52 0.63 0.98 1.30 1.32 1.45 1.59 1.78 2.22 2.61 2.94 3.12 3.20 3.58 4.15 4.56 4.66 4.43 4.30 4.13 3.86 3.74 3.71 3.90 3.59 3.26 3.06 2.84 2.64 2.62 2.72
0.03 0.03 0.02 0.02 0.02 0.03 0.05 0.07 0.11 0.16 0.16 0.23 0.34 0.64 0.84 1.09 1.23 1.24 1.31 1.42 1.58 1.91 2.25 2.56 2.67 2.83 3.04 3.11 3.36 3.52 3.67 3.57 3.45 3.41 3.39 3.43 3.62 3.36 3.08 2.90 2.77 2.50 2.37 2.34
0.03 0.03 0.03 0.04 0.04 0.04 0.06 0.07 0.06 0.08 0.16 0.29 0.43 0.95 1.18 1.11 1.17 1.31 1.33 1.34 1.59 1.89 1.88 1.99 2.19 2.37 2.61 2.72 2.91 2.97 2.99 3.09 3.10 3.16 3.07 2.90 2.79 2.66 2.53 2.55 2.51 2.46 2.37 2.28
0.05 0.04 0.03 0.05 0.05 0.04 0.05 0.05 0.06 0.10 0.19 0.30 0.43 0.75 1.12 1.44 1.51 1.32 1.29 1.21 1.39 1.54 1.45 1.43 1.60 1.74 1.95 2.12 2.36 2.51 2.62 2.70 2.80 2.85 2.75 2.71 2.50 2.47 2.47 2.45 2.46 2.37 2.29 2.25
0.05 0.05 0.04 0.04 0.04 0.04 0.04 0.06 0.12 0.24 0.42 0.66 0.56 0.69 1.07 1.42 1.67 1.41 1.23 1.16 1.24 1.20 1.18 1.31 1.42 1.51 1.64 1.85 2.02 2.17 2.31 2.36 2.48 2.53 2.54 2.48 2.42 2.42 2.39 2.35 2.30 2.23 2.22 2.12
0.12 0.12 0.10 0.06 0.05 0.06 0.06 0.13 0.45 0.82 1.10 1.13 0.72 0.78 1.13 1.13 1.16 1.16 1.13 1.18 1.17 1.08 1.02 1.04 1.15 1.29 1.45 1.63 1.73 1.80 1.94 2.02 2.04 2.08 2.12 2.10 2.18 2.29 2.15 2.05 2.05 2.02 1.87 1.72
0.17 0.24 0.15 0.09 0.09 0.09 0.10 0.15 0.50 0.77 0.82 0.92 0.81 1.08 1.42 1.13 1.04 0.97 1.04 1.13 1.10 0.96 0.88 0.92 1.03 1.08 1.16 1.32 1.49 1.54 1.66 1.76 1.90 1.93 1.91 1.90 1.91 1.93 1.81 1.85 1.81 1.77 1.57 1.46
0.10 0.11 0.08 0.08 0.09 0.11 0.15 0.17 0.23 0.44 0.49 0.70 0.90 1.19 1.36 1.04 0.99 1.08 1.19 1.19 1.13 0.89 0.75 0.75 0.78 0.84 0.86 0.94 1.07 1.21 1.49 1.62 1.70 1.77 1.77 1.68 1.63 1.66 1.65 1.68 1.77 1.70 1.65 1.51
0.06 0.05 0.06 0.07 0.09 0.12 0.15 0.16 0.19 0.36 0.54 0.74 0.87 1.24 1.53 1.39 1.27 1.25 1.31 1.16 0.88 0.71 0.59 0.57 0.59 0.61 0.67 0.74 0.83 0.98 1.19 1.30 1.40 1.54 1.59 1.43 1.55 1.66 1.66 1.63 1.55 1.53 1.54 1.53
0.05 0.04 0.06 0.09 0.12 0.14 0.19 0.21 0.28 0.40 0.44 0.65 1.00 1.21 1.14 1.15 1.13 1.19 1.17 0.98 0.73 0.60 0.52 0.53 0.55 0.59 0.64 0.68 0.79 0.95 1.18 1.33 1.32 1.39 1.45 1.44 1.51 1.63 1.63 1.55 1.46 1.45 1.45 1.48
0.07 0.06 0.10 0.16 0.18 0.17 0.17 0.19 0.28 0.42 0.42 0.46 0.70 0.91 0.65 0.70 0.73 0.79 0.83 0.72 0.61 0.58 0.54 0.60 0.65 0.66 0.66 0.75 0.84 0.97 1.12 1.30 1.35 1.42 1.55 1.65 1.60 1.56 1.56 1.53 1.42 1.35 1.28 1.29
0.11 0.12 0.17 0.38 0.48 0.30 0.19 0.17 0.19 0.24 0.27 0.30 0.52 0.71 0.50 0.56 0.65 0.79 0.86 0.87 0.82 0.71 0.56 0.57 0.67 0.75 0.72 0.83 0.99 1.11 1.25 1.35 1.44 1.55 1.76 1.86 1.73 1.63 1.65 1.57 1.39 1.27 1.20 1.21
0.12 0.15 0.19 0.41 0.52 0.40 0.30 0.23 0.19 0.22 0.31 0.28 0.31 0.47 0.50 0.56 0.66 0.77 0.86 0.88 0.78 0.67 0.59 0.59 0.63 0.71 0.86 0.95 1.10 1.24 1.18 1.29 1.40 1.42 1.60 1.75 1.71 1.57 1.47 1.43 1.38 1.34 1.31 1.27
0.10 0.12 0.13 0.16 0.23 0.30 0.32 0.27 0.21 0.18 0.21 0.34 0.32 0.37 0.47 0.58 0.60 0.72 0.82 0.75 0.70 0.64 0.63 0.64 0.70 0.75 0.80 0.85 0.88 0.97 0.93 1.07 1.05 1.12 1.22 1.33 1.30 1.30 1.26 1.20 1.17 1.19 1.26 1.21
0.17 0.17 0.16 0.15 0.18 0.22 0.25 0.26 0.18 0.14 0.12 0.15 0.27 0.48 0.52 0.55 0.60 0.66 0.70 0.71 0.68 0.74 0.80 0.81 0.82 0.89 0.80 0.75 0.71 0.66 0.71 0.82 0.90 1.01 0.99 1.08 1.16 1.09 1.04 1.05 1.03 1.05 1.14 1.21
0.35 0.30 0.27 0.24 0.21 0.26 0.31 0.26 0.19 0.14 0.13 0.14 0.31 0.58 0.57 0.57 0.62 0.71 0.76 0.80 0.72 0.70 0.74 0.80 0.80 0.78 0.66 0.62 0.60 0.60 0.64 0.68 0.72 0.82 0.96 1.07 1.11 1.07 0.99 1.05 1.15 1.12 1.23 1.27
0.44 0.47 0.40 0.35 0.41 0.56 0.39 0.25 0.21 0.21 0.20 0.21 0.27 0.37 0.44 0.57 0.60 0.58 0.64 0.76 0.79 0.77 0.81 0.81 0.75 0.68 0.63 0.60 0.60 0.59 0.58 0.61 0.67 0.70 0.79 0.91 0.99 0.97 0.97 0.99 1.05 1.14 1.27 1.33
0.34 0.50 0.51 0.48 0.57 0.50 0.43 0.36 0.33 0.36 0.37 0.34 0.42 0.40 0.46 0.52 0.55 0.62 0.53 0.58 0.62 0.76 0.75 0.77 0.74 0.75 0.77 0.70 0.73 0.76 0.70 0.72 0.80 0.84 0.89 0.85 0.92 1.01 1.07 1.10 1.15 1.23 1.30 1.34
0.43 0.55 0.67 0.62 0.76 0.78 0.66 0.54 0.47 0.49 0.81 0.62 0.58 0.58 0.66 0.69 0.78 0.90 0.68 0.60 0.67 0.74 0.73 0.76 0.70 0.64 0.71 0.75 0.85 0.92 0.92 0.91 0.98 1.08 1.16 1.17 1.22 1.27 1.27 1.38 1.51 1.55 1.55 1.49
0.88 0.88 0.81 0.82 0.93 0.96 0.75 0.62 0.56 0.93 1.13 0.76 0.69 0.74 0.72 0.75 0.85 0.84 0.78 0.76 0.80 0.67 0.64 0.68 0.77 0.72 0.72 0.79 0.91 1.07 1.13 1.10 1.16 1.24 1.34 1.44 1.56 1.71 1.82 1.93 1.88 1.84 1.86 1.87
1.03 1.13 1.12 1.15 1.31 1.24 0.78 0.73 1.01 1.19 0.93 0.96 0.86 0.78 0.73 0.69 0.77 0.82 0.81 0.76 0.65 0.63 0.63 0.66 0.79 0.77 0.79 0.89 1.01 1.13 1.20 1.26 1.39 1.48 1.62 1.73 1.90 1.98 2.09 2.41 2.45 2.49 2.44 2.19
1.14 1.18 1.18 1.24 1.34 1.07 0.91 1.07 1.12 1.09 1.08 1.11 1.05 0.86 0.78 0.71 0.72 0.77 0.68 0.59 0.52 0.53 0.58 0.63 0.78 0.87 0.86 0.93 1.12 1.33 1.36 1.44 1.57 1.68 1.87 2.02 2.10 2.23 2.38 2.53 2.54 2.55 2.49 2.24
1.23 1.03 1.15 1.30 1.39 1.20 1.08 1.07 1.12 1.09 1.03 1.04 1.02 1.07 1.07 0.91 0.80 0.81 0.74 0.63 0.57 0.58 0.62 0.66 0.78 0.92 1.07 1.15 1.28 1.48 1.49 1.60 1.73 1.82 1.92 2.02 2.12 2.24 2.41 2.56 2.49 2.42 2.34 2.24
1.18 1.22 1.39 1.57 1.53 1.38 1.25 1.22 1.35 1.31 1.16 1.16 1.13 1.14 1.19 0.98 0.81 0.75 0.76 0.76 0.74 0.75 0.78 0.78 0.86 1.00 1.22 1.39 1.49 1.54 1.57 1.72 1.88 1.90 1.98 2.07 2.10 2.13 2.23 2.31 2.40 2.31 2.24 2.19
1.17 1.30 1.51 1.68 1.54 1.61 1.49 1.26 1.34 1.43 1.28 1.31 1.27 1.18 1.00 0.91 0.87 0.80 0.79 0.83 0.81 0.83 0.83 0.87 0.95 1.04 1.21 1.38 1.54 1.66 1.77 1.89 2.01 2.03 1.94 1.98 2.05 2.11 2.15 2.12 2.00 1.92 1.86 1.79